Regional Weather Roundup
Issued by NWS

Home | Current Version | Previous Version | Graphics & Text | Print | Product List | Glossary On
Versions: 1 2 3 4 5 6 7 8 9 10 11 12 13 14 15 16 17 18 19 20 21 22 23 24 25 26 27 28 29 30 31 32 33 34 35 36 37 38 39 40 41 42 43 44 45 46 47 48 49 50
771
ASUS43 KIND 111959
RWRIN

WEATHER ROUNDUP FOR INDIANA
NATIONAL WEATHER SERVICE INDIANAPOLIS IN
300 PM EST MON DEC 11 2017

NOTE: "FAIR" INDICATES FEW OR NO CLOUDS BELOW 12,000 FEET WITH NO
SIGNIFICANT WEATHER AND/OR OBSTRUCTIONS TO VISIBILITY.

* - STATION DOES NOT REPORT WEATHER SUCH AS PRECIPITATION OR FOG.

+ - STATION NOT QUALITY CONTROLLED BY THE NATIONAL WEATHER SERVICE.
    USE DATA WITH CAUTION...ESPECIALLY DEWPOINT AND RELATIVE
    HUMIDITY OBSERVATIONS.

INZ001>003-010>013-019-020-112100-
NORTHWEST INDIANA

CITY           SKY/WX    TMP DP  RH WIND       PRES   REMARKS
GARY /AIRPORT/ CLOUDY    39  25  56 SE9       29.69F WCI  33
MONTICELLO +   CLOUDY    39  25  56 E8        29.69F WCI  34

$$

LMZ046-743>745-112100-
SOUTHERN LAKE MICHIGAN

STATION/POSITION TIME  TEMP    WIND        PRES    WAVE
                       AIR SEA DIR/SP/G            HT
                 (UTC) (F)     (DEG/KT/KT) (MB)    (FT)
BURNS HARBOR     1940   36     150/  2/ 12 1006.4F
MICHIGAN CITY    1930   33     130/  9/ 12   N/A

$$

INZ004-005-014>016-021>024-112100-
NORTH CENTRAL INDIANA

CITY           SKY/WX    TMP DP  RH WIND       PRES   REMARKS
GOSHEN         CLOUDY    33  25  72 SE13      29.74F WCI  24
SOUTH BEND     CLOUDY    31  26  82 SE14      29.73F WCI  21

$$

INZ006>009-017-018-025>027-112100-
NORTHEAST INDIANA

CITY           SKY/WX    TMP DP  RH WIND       PRES   REMARKS
FORT WAYNE     CLOUDY    35  27  72 SE12      29.77F WCI  27
KENDALLVILLE + CLOUDY    32  26  77 SE12      29.76F WCI  23

$$

INZ028-029-035-036-043>045-051>053-112100-
WEST CENTRAL INDIANA

CITY           SKY/WX    TMP DP  RH WIND       PRES   REMARKS
LAFAYETTE      PTSUNNY   43  27  53 SE8       29.67F
TERRE HAUTE    MOSUNNY   49  28  44 SW16      29.71F

$$

INZ030>032-037>040-046>048-054>057-064-065-112100-
CENTRAL INDIANA

CITY           SKY/WX    TMP DP  RH WIND       PRES   REMARKS
ANDERSON       SUNNY     39  28  65 SE10      29.77F WCI  32
COLUMBUS       SUNNY     46  23  39 S14G29    29.76F
INDIANAPOLIS   PTSUNNY   44  27  51 SE10      29.71F
-EAGLE CREEK   PTSUNNY   45  26  47 S10G18    29.70F
KOKOMO +       SUNNY     37  28  70 SE12      29.73F WCI  29
MT COMFORT *+  PTSUNNY   41  32  70 S10       29.74F
SHELBYVILLE    CLOUDY    44  27  51 S16       29.74F

$$

INZ033-034-041-042-049-050-058-059-112100-
EAST CENTRAL INDIANA

CITY           SKY/WX    TMP DP  RH WIND       PRES   REMARKS
MUNCIE         MOSUNNY   41  27  57 S10       29.77F
RICHMOND +     MOSUNNY   36  30  80 S12       29.80F WCI  27

$$

INZ060-061-067>069-081>083-085>088-112100-
SOUTHWEST INDIANA

CITY           SKY/WX    TMP DP  RH WIND       PRES   REMARKS
EVANSVILLE     SUNNY     56  31  38 S15G28    29.76F
HUNTINGBURG +  MOSUNNY   53  32  44 S17G25    29.76F

$$

INZ062-063-066-070>080-084-089>092-112100-
SOUTH CENTRAL AND SOUTHEAST INDIANA

CITY           SKY/WX    TMP DP  RH WIND       PRES   REMARKS
BLOOMINGTON    SUNNY     49  28  44 S15G22    29.70F
MADISON *+     CLOUDY    46  28  49 S8        29.82F
SEYMOUR +      PTSUNNY   50  28  43 S9        29.78F

$$





USA.gov is the U.S. government's official web portal to all federal, state and local government web resources and services.